JAL2357 RJOO-RJOC

Flight info

Callsign JAL2357
Flight time 0h 33m
Altitude 18000
Route TIGER ASAGI TOZAN Y188 RAKDA
Aircraft E170/M-SDE3GILORVW/S

Departure

Time 2026-05-05 13:02
Airport Osaka Itami International Airport (RJOO)

Arrival

Time 2026-05-05 13:36
Airport Izumo Enmusubi Airport (RJOC)
Time Latitude Longitude Altitude Speed Heading
2026-05-05 12:44 34.79212 135.43649 46 ft 0 kts 177°
2026-05-05 12:59 34.79203 135.43648 45 ft 3 kts 195°
2026-05-05 12:59 34.79174 135.43627 46 ft 7 kts 216°
2026-05-05 12:59 34.79125 135.43589 44 ft 10 kts 190°
2026-05-05 13:00 34.78985 135.43706 46 ft 16 kts 135°
2026-05-05 13:00 34.78897 135.43812 46 ft 19 kts 135°
2026-05-05 13:01 34.78548 135.44237 45 ft 27 kts 134°
2026-05-05 13:01 34.78422 135.44333 47 ft 21 kts 183°
2026-05-05 13:01 34.78356 135.44293 48 ft 11 kts 284°
2026-05-05 13:01 34.78442 135.44181 46 ft 46 kts 314°
2026-05-05 13:02 34.78903 135.43625 48 ft 138 kts 315°
2026-05-05 13:02 34.79687 135.42657 580 ft 175 kts 314°
2026-05-05 13:02 34.80452 135.41437 1525 ft 186 kts 292°
2026-05-05 13:02 34.80465 135.39887 2274 ft 191 kts 245°
2026-05-05 13:03 34.79560 135.38710 2992 ft 197 kts 206°
2026-05-05 13:03 34.78208 135.38556 3723 ft 201 kts 165°
2026-05-05 13:03 34.76873 135.39090 4437 ft 203 kts 168°
2026-05-05 13:03 34.75484 135.38962 5102 ft 206 kts 193°
2026-05-05 13:04 34.74064 135.38530 5660 ft 217 kts 192°
2026-05-05 13:04 34.72554 135.38098 6254 ft 227 kts 192°
2026-05-05 13:04 34.70996 135.37654 6904 ft 231 kts 192°
2026-05-05 13:04 34.69470 135.37012 7596 ft 236 kts 211°
2026-05-05 13:05 34.68379 135.35515 8394 ft 242 kts 237°
2026-05-05 13:05 34.67721 135.33626 9009 ft 248 kts 255°
2026-05-05 13:05 34.67450 135.31546 9649 ft 250 kts 256°
2026-05-05 13:05 34.67137 135.29453 10208 ft 253 kts 255°
2026-05-05 13:06 34.67055 135.27326 10724 ft 259 kts 270°
2026-05-05 13:06 34.67230 135.25138 11272 ft 261 kts 272°
2026-05-05 13:06 34.67440 135.22939 11854 ft 264 kts 273°
2026-05-05 13:06 34.67661 135.20698 12488 ft 274 kts 273°
2026-05-05 13:07 34.67966 135.18271 12660 ft 306 kts 281°
2026-05-05 13:07 34.68922 135.15831 12877 ft 337 kts 306°
2026-05-05 13:07 34.70597 135.13719 13208 ft 358 kts 314°
2026-05-05 13:07 34.72450 135.11628 13837 ft 366 kts 315°
2026-05-05 13:08 34.74313 135.09510 14634 ft 367 kts 314°
2026-05-05 13:08 34.76174 135.07367 15432 ft 369 kts 314°
2026-05-05 13:08 34.78018 135.05250 16243 ft 370 kts 314°
2026-05-05 13:08 34.79898 135.03098 17002 ft 372 kts 314°
2026-05-05 13:09 34.81791 135.00940 17714 ft 375 kts 314°
2026-05-05 13:09 34.83707 134.98765 18337 ft 377 kts 314°
2026-05-05 13:09 34.85587 134.96651 18125 ft 361 kts 314°
2026-05-05 13:09 34.87375 134.94660 18213 ft 335 kts 314°
2026-05-05 13:10 34.89049 134.92791 18233 ft 317 kts 314°
2026-05-05 13:10 34.90648 134.90995 18234 ft 309 kts 313°
2026-05-05 13:10 34.92209 134.89190 18219 ft 310 kts 312°
2026-05-05 13:10 34.93766 134.87372 18236 ft 310 kts 313°
2026-05-05 13:11 34.95333 134.85552 18252 ft 311 kts 313°
2026-05-05 13:11 34.96893 134.83732 18304 ft 311 kts 312°
2026-05-05 13:11 34.98459 134.81910 18330 ft 311 kts 313°
2026-05-05 13:11 35.00027 134.80087 18281 ft 313 kts 313°
2026-05-05 13:12 35.01601 134.78253 18201 ft 311 kts 313°
2026-05-05 13:12 35.03144 134.76456 18206 ft 310 kts 313°
2026-05-05 13:12 35.04706 134.74635 18201 ft 311 kts 313°
2026-05-05 13:12 35.06265 134.72816 18205 ft 310 kts 313°
2026-05-05 13:13 35.07826 134.70989 18226 ft 311 kts 312°
2026-05-05 13:13 35.09388 134.69164 18215 ft 311 kts 313°
2026-05-05 13:13 35.10954 134.67333 18213 ft 311 kts 313°
2026-05-05 13:13 35.12516 134.65506 18209 ft 311 kts 313°
2026-05-05 13:14 35.14085 134.63673 18228 ft 312 kts 313°
2026-05-05 13:14 35.15652 134.61837 18220 ft 312 kts 313°
2026-05-05 13:14 35.17223 134.60001 18215 ft 312 kts 313°
2026-05-05 13:14 35.18789 134.58163 18220 ft 311 kts 313°
2026-05-05 13:15 35.20351 134.56330 18230 ft 312 kts 313°
2026-05-05 13:15 35.21922 134.54489 18219 ft 313 kts 312°
2026-05-05 13:15 35.23491 134.52646 18218 ft 313 kts 313°
2026-05-05 13:15 35.25063 134.50799 18216 ft 313 kts 312°
2026-05-05 13:16 35.26510 134.48889 18240 ft 309 kts 303°
2026-05-05 13:16 35.27547 134.46616 18247 ft 305 kts 289°
2026-05-05 13:16 35.28295 134.44192 18222 ft 305 kts 286°
2026-05-05 13:16 35.29020 134.41757 18208 ft 304 kts 286°
2026-05-05 13:17 35.29744 134.39325 18202 ft 304 kts 286°
2026-05-05 13:17 35.30470 134.36881 18197 ft 305 kts 286°
2026-05-05 13:17 35.31195 134.34444 18203 ft 305 kts 287°
2026-05-05 13:17 35.31920 134.32010 18178 ft 303 kts 286°
2026-05-05 13:18 35.32641 134.29576 18199 ft 304 kts 286°
2026-05-05 13:18 35.33366 134.27140 18199 ft 304 kts 286°
2026-05-05 13:18 35.34089 134.24707 18184 ft 303 kts 286°
2026-05-05 13:18 35.34812 134.22277 18184 ft 304 kts 286°
2026-05-05 13:19 35.35533 134.19843 18185 ft 304 kts 286°
2026-05-05 13:19 35.36256 134.17405 18174 ft 304 kts 286°
2026-05-05 13:19 35.36975 134.14976 18176 ft 303 kts 286°
2026-05-05 13:19 35.37700 134.12512 18215 ft 320 kts 286°
2026-05-05 13:20 35.38463 134.09916 18208 ft 328 kts 286°
2026-05-05 13:20 35.39243 134.07276 18161 ft 330 kts 286°
2026-05-05 13:20 35.40023 134.04610 17901 ft 333 kts 286°
2026-05-05 13:20 35.40806 134.01948 17691 ft 332 kts 286°
2026-05-05 13:21 35.41588 133.99283 17302 ft 334 kts 286°
2026-05-05 13:21 35.42372 133.96606 16848 ft 332 kts 286°
2026-05-05 13:21 35.43151 133.93950 16375 ft 329 kts 287°
2026-05-05 13:21 35.43920 133.91325 15919 ft 326 kts 286°
2026-05-05 13:22 35.44679 133.88723 15506 ft 323 kts 286°
2026-05-05 13:22 35.45437 133.86135 15076 ft 322 kts 287°
2026-05-05 13:22 35.46192 133.83551 14653 ft 321 kts 287°
2026-05-05 13:22 35.46943 133.80980 14233 ft 319 kts 287°
2026-05-05 13:23 35.47695 133.78409 13542 ft 323 kts 287°
2026-05-05 13:23 35.48442 133.75856 13187 ft 313 kts 287°
2026-05-05 13:23 35.49171 133.73373 12776 ft 306 kts 287°
2026-05-05 13:23 35.49884 133.70936 12371 ft 301 kts 287°
2026-05-05 13:24 35.50587 133.68536 11978 ft 297 kts 287°
2026-05-05 13:24 35.51284 133.66168 11564 ft 293 kts 286°
2026-05-05 13:24 35.51916 133.63824 11155 ft 286 kts 278°
2026-05-05 13:24 35.52154 133.61432 10760 ft 279 kts 270°
2026-05-05 13:25 35.52261 133.59101 10420 ft 275 kts 270°
2026-05-05 13:25 35.52375 133.56762 10042 ft 274 kts 270°
2026-05-05 13:25 35.52493 133.54427 9654 ft 272 kts 270°
2026-05-05 13:25 35.52612 133.52132 9303 ft 267 kts 270°
2026-05-05 13:26 35.52731 133.49874 8968 ft 264 kts 270°
2026-05-05 13:26 35.52849 133.47635 8619 ft 262 kts 270°
2026-05-05 13:26 35.52967 133.45410 8277 ft 261 kts 270°
2026-05-05 13:26 35.53085 133.43195 7937 ft 260 kts 270°
2026-05-05 13:27 35.53202 133.40984 7592 ft 259 kts 270°
2026-05-05 13:27 35.53318 133.38783 7249 ft 258 kts 270°
2026-05-05 13:27 35.53435 133.36589 6909 ft 257 kts 270°
2026-05-05 13:27 35.53550 133.34402 6565 ft 256 kts 270°
2026-05-05 13:28 35.53665 133.32233 6218 ft 253 kts 270°
2026-05-05 13:28 35.53778 133.30088 5884 ft 250 kts 269°
2026-05-05 13:28 35.53890 133.27972 5560 ft 246 kts 269°
2026-05-05 13:28 35.53999 133.25893 5244 ft 243 kts 269°
2026-05-05 13:29 35.54105 133.23865 4935 ft 234 kts 269°
2026-05-05 13:29 35.54211 133.21888 4651 ft 231 kts 269°
2026-05-05 13:29 35.54313 133.19947 4285 ft 224 kts 269°
2026-05-05 13:29 35.54409 133.18095 4044 ft 210 kts 269°
2026-05-05 13:30 35.54360 133.16376 3834 ft 194 kts 252°
2026-05-05 13:30 35.53847 133.14923 3747 ft 182 kts 238°
2026-05-05 13:30 35.53219 133.13593 3606 ft 181 kts 237°
2026-05-05 13:30 35.52591 133.12270 3653 ft 178 kts 237°
2026-05-05 13:31 35.51957 133.10950 3471 ft 179 kts 236°
2026-05-05 13:31 35.51334 133.09646 3412 ft 176 kts 237°
2026-05-05 13:31 35.50706 133.08335 3270 ft 181 kts 237°
2026-05-05 13:31 35.50066 133.07005 3047 ft 181 kts 236°
2026-05-05 13:32 35.49631 133.06112 2882 ft 180 kts 237°
2026-05-05 13:32 35.49006 133.04799 2750 ft 176 kts 238°
2026-05-05 13:32 35.48181 133.03080 2439 ft 179 kts 236°
2026-05-05 13:32 35.47749 133.02213 2235 ft 180 kts 236°
2026-05-05 13:33 35.47114 133.00915 2070 ft 171 kts 237°
2026-05-05 13:33 35.46530 132.99695 1819 ft 159 kts 237°
2026-05-05 13:33 35.45990 132.98570 1620 ft 151 kts 237°
2026-05-05 13:33 35.45475 132.97499 1447 ft 141 kts 237°
2026-05-05 13:34 35.44982 132.96478 1252 ft 141 kts 237°
2026-05-05 13:34 35.44483 132.95449 1024 ft 140 kts 238°
2026-05-05 13:34 35.43989 132.94419 805 ft 140 kts 237°
2026-05-05 13:34 35.43494 132.93396 615 ft 139 kts 237°
2026-05-05 13:35 35.43003 132.92379 427 ft 139 kts 237°
2026-05-05 13:35 35.42520 132.91352 261 ft 139 kts 236°
2026-05-05 13:35 35.42032 132.90344 124 ft 138 kts 235°
2026-05-05 13:35 35.41552 132.89369 8 ft 121 kts 236°
2026-05-05 13:36 35.41199 132.88639 9 ft 62 kts 239°
2026-05-05 13:36 35.41068 132.88374 8 ft 32 kts 239°
2026-05-05 13:36 35.40969 132.88175 9 ft 23 kts 224°
2026-05-05 13:36 35.40902 132.88099 8 ft 8 kts 276°
2026-05-05 13:37 35.40931 132.88092 8 ft 8 kts 57°
2026-05-05 13:37 35.40993 132.88221 10 ft 25 kts 59°
2026-05-05 13:37 35.41093 132.88428 8 ft 30 kts 59°
2026-05-05 13:37 35.41197 132.88636 8 ft 18 kts 58°
2026-05-05 13:38 35.41263 132.88696 9 ft 12 kts 342°
2026-05-05 13:38 35.41344 132.88654 7 ft 14 kts 353°
2026-05-05 13:38 35.41412 132.88619 7 ft 6 kts 329°
2026-05-05 13:38 35.41428 132.88607 7 ft 0 kts 329°